This is the latest recevied weather packets stored in our database for station/object KD7JB. If no packets are shown the sender has not sent any weather packets the latest 10 day(s).
| Time | Temp. | Humidity | Pressure | Rain* | Wind** | Luminosity | Snow |
|---|---|---|---|---|---|---|---|
| 1777692055 | 13.33° C | 52% | 1177.8 hPa | 0 mm | - | 1 W/m² | - |
| 1777691753 | 13.89° C | 52% | 1177.6 hPa | 0 mm | - | 2 W/m² | - |
| 1777691450 | 13.89° C | 52% | 1177.6 hPa | 0 mm | - | 3 W/m² | - |
| 1777691149 | 13.89° C | 52% | 1177.5 hPa | 0 mm | - | 5 W/m² | - |
| 1777690846 | 13.89° C | 52% | 1177.4 hPa | 0 mm | - | 7 W/m² | - |
| 1777690543 | 13.89° C | 52% | 1177.4 hPa | 0 mm | - | 10 W/m² | - |
| 1777690242 | 13.89° C | 52% | 1177.6 hPa | 0 mm | - | 11 W/m² | - |
| 1777689939 | 13.89° C | 53% | 1177.5 hPa | 0 mm | - | 13 W/m² | - |
| 1777689637 | 13.89° C | 53% | 1177.4 hPa | 0 mm | - | 16 W/m² | - |
| 1777689334 | 13.89° C | 52% | 1177.5 hPa | 0 mm | - | 20 W/m² | - |
| 1777689031 | 13.89° C | 52% | 1177.3 hPa | 0 mm | - | 24 W/m² | - |
| 1777688728 | 14.44° C | 51% | 1177.4 hPa | 0 mm | - | 27 W/m² | - |
| 1777688426 | 14.44° C | 50% | 1177.4 hPa | 0 mm | - | 31 W/m² | - |
| 1777688123 | 15° C | 50% | 1177.3 hPa | 0 mm | - | 35 W/m² | - |
| 1777687820 | 15° C | 48% | 1177.5 hPa | 0 mm | - | 40 W/m² | - |
| 1777687517 | 15.56° C | 47% | 1177.5 hPa | 0 mm | - | 46 W/m² | - |
| 1777674184 | 15.56° C | 44% | 1178.7 hPa | 0 mm | - | 249 W/m² | - |
| 1777673578 | 16.11° C | 43% | 1178.9 hPa | 0 mm | - | 251 W/m² | - |
| 1777672060 | 16.11° C | 43% | 1179 hPa | 0 mm | - | 369 W/m² | - |
| 1777671452 | 16.67° C | 41% | 1179 hPa | 0 mm | - | 345 W/m² | - |
| 1777671149 | 17.22° C | 41% | 1179 hPa | 0 mm | - | 275 W/m² | - |
| 1777670845 | 17.22° C | 40% | 1178.9 hPa | 0 mm | - | 537 W/m² | - |
| 1777670542 | 17.78° C | 40% | 1178.8 hPa | 0 mm | - | 294 W/m² | - |
| 1777670239 | 17.78° C | 40% | 1179 hPa | 0 mm | - | 619 W/m² | - |
| 1777669936 | 17.78° C | 38% | 1179 hPa | 0 mm | - | 651 W/m² | - |
* Rain latest hour (hover to see other rain measurements)
** Current wind speed in m/s (hover to see current wind gust speed)